When you browse on this site, cookies collect data to enhance your experience and personalize the content and advertising you see.
Visit our Privacy Policy to learn more. By continuing to use the site, you agree to this use of cookies and data.
  • Em Portugal
  • Lista de países
  • Para 7 dias
  • Temperatura da água
  • Mapa do tempo
  • Widgets de tempo
  • user-avatar
    Iniciar Sessão

    Previsão horária em Hohly

    Hoje, 20 Janeiro, Segunda-feira

    Tempo Temperatura Precipitação Vento Pressão Humidade
    00:00 0°C° 0 mm 4 m/s 765 mmHg 88%
    01:00 0°C° 0 mm 4 m/s 765 mmHg 86%
    02:00 +1°C° 0 mm 4 m/s 766 mmHg 85%
    03:00 0°C° 0 mm 4 m/s 766 mmHg 87%
    04:00 0°C° 0 mm 4 m/s 766 mmHg 88%
    05:00 -1°C° 0 mm 4 m/s 766 mmHg 90%
    06:00 -1°C° 0 mm 4 m/s 766 mmHg 90%
    07:00 -1°C° 0 mm 4 m/s 766 mmHg 90%
    08:00 -1°C° 0 mm 4 m/s 766 mmHg 90%
    09:00 -1°C° 0 mm 4 m/s 766 mmHg 87%
    10:00 0°C° 0 mm 4 m/s 766 mmHg 85%
    11:00 0°C° 0 mm 4 m/s 766 mmHg 83%
    12:00 +1°C° 0 mm 4 m/s 766 mmHg 79%
    13:00 +1°C° 0 mm 4 m/s 766 mmHg 75%
    14:00 +1°C° 0 mm 4 m/s 766 mmHg 71%
    15:00 +1°C° 0 mm 4 m/s 765 mmHg 72%
    16:00 0°C° 0 mm 4 m/s 765 mmHg 72%
    17:00 0°C° 0 mm 4 m/s 764 mmHg 73%
    18:00 0°C° 0 mm 4 m/s 764 mmHg 74%
    19:00 0°C° 0 mm 4 m/s 763 mmHg 75%
    20:00 0°C° 0 mm 5 m/s 763 mmHg 76%
    21:00 0°C° 0 mm 5 m/s 762 mmHg 79%
    22:00 0°C° 0 mm 5 m/s 761 mmHg 82%
    23:00 +1°C° 0 mm 5 m/s 761 mmHg 85%

    Amanhã, 21 Janeiro, Terça-feira

    Tempo Temperatura Precipitação Vento Pressão Humidade
    00:00 +1°C° 0 mm 6 m/s 760 mmHg 85%
    01:00 +2°C° 0 mm 6 m/s 759 mmHg 85%
    02:00 +2°C° 0 mm 6 m/s 759 mmHg 85%
    03:00 +2°C° 0 mm 6 m/s 758 mmHg 85%
    04:00 +3°C° 0 mm 6 m/s 757 mmHg 85%
    05:00 +4°C° 0 mm 6 m/s 756 mmHg 85%
    06:00 +4°C° 0 mm 7 m/s 756 mmHg 86%
    07:00 +4°C° 0 mm 7 m/s 755 mmHg 86%
    08:00 +4°C° 0 mm 7 m/s 755 mmHg 86%
    09:00 +5°C° 0 mm 6 m/s 754 mmHg 85%
    10:00 +5°C° 0 mm 6 m/s 753 mmHg 84%
    11:00 +5°C° 0 mm 6 m/s 753 mmHg 83%
    12:00 +5°C° 0 mm 6 m/s 752 mmHg 83%
    13:00 +5°C° 0 mm 6 m/s 752 mmHg 82%
    14:00 +5°C° 0 mm 6 m/s 751 mmHg 81%
    15:00 +5°C° 0.6 mm 6 m/s 751 mmHg 82%
    16:00 +4°C° 0.6 mm 6 m/s 751 mmHg 83%
    17:00 +3°C° 0.6 mm 6 m/s 751 mmHg 84%
    18:00 +2°C° 0 mm 6 m/s 752 mmHg 79%
    19:00 +2°C° 0 mm 6 m/s 752 mmHg 73%
    20:00 +1°C° 0 mm 6 m/s 753 mmHg 67%
    21:00 0°C° 0 mm 5 m/s 752 mmHg 69%
    22:00 0°C° 0 mm 5 m/s 752 mmHg 71%
    23:00 0°C° 0 mm 5 m/s 752 mmHg 73%

    Depois de amanhã, 22 Janeiro, Quarta-feira

    Tempo Temperatura Precipitação Vento Pressão Humidade
    00:00 0°C° 0 mm 5 m/s 751 mmHg 71%
    01:00 0°C° 0 mm 5 m/s 751 mmHg 69%
    02:00 0°C° 0 mm 5 m/s 750 mmHg 67%
    03:00 0°C° 0 mm 5 m/s 750 mmHg 68%
    04:00 -1°C° 0 mm 5 m/s 749 mmHg 69%
    05:00 -1°C° 0 mm 4 m/s 748 mmHg 69%
    06:00 -1°C° 0.2 mm 4 m/s 748 mmHg 73%
    07:00 -1°C° 0.2 mm 4 m/s 747 mmHg 77%
    08:00 -1°C° 0.2 mm 5 m/s 747 mmHg 81%
    09:00 -1°C° 0 mm 5 m/s 747 mmHg 76%
    10:00 -1°C° 0 mm 5 m/s 747 mmHg 71%
    11:00 -1°C° 0 mm 5 m/s 747 mmHg 67%
    12:00 -1°C° 0 mm 5 m/s 747 mmHg 68%
    13:00 -1°C° 0 mm 5 m/s 747 mmHg 70%
    14:00 -1°C° 0 mm 5 m/s 747 mmHg 71%
    15:00 -1°C° 0.1 mm 5 m/s 747 mmHg 76%
    16:00 -2°C° 0.1 mm 5 m/s 748 mmHg 82%
    17:00 -2°C° 0.1 mm 5 m/s 748 mmHg 87%
    18:00 -2°C° 0 mm 5 m/s 749 mmHg 82%
    19:00 -2°C° 0 mm 5 m/s 750 mmHg 76%
    20:00 -2°C° 0 mm 5 m/s 750 mmHg 70%
    21:00 -4°C° 0 mm 5 m/s 751 mmHg 66%
    22:00 -4°C° 0 mm 5 m/s 752 mmHg 62%
    23:00 -5°C° 0 mm 6 m/s 753 mmHg 58%

    23 Janeiro, Quinta-feira

    Tempo Temperatura Precipitação Vento Pressão Humidade
    00:00 -5°C° 0 mm 6 m/s 754 mmHg 58%
    01:00 -5°C° 0 mm 6 m/s 755 mmHg 58%
    02:00 -5°C° 0 mm 6 m/s 755 mmHg 58%
    03:00 -5°C° 0 mm 5 m/s 756 mmHg 58%
    04:00 -5°C° 0 mm 5 m/s 756 mmHg 57%
    05:00 -4°C° 0 mm 4 m/s 757 mmHg 57%
    06:00 -4°C° 0 mm 4 m/s 757 mmHg 58%
    07:00 -4°C° 0 mm 4 m/s 757 mmHg 58%
    08:00 -4°C° 0 mm 4 m/s 758 mmHg 59%
    09:00 -3°C° 0 mm 4 m/s 758 mmHg 57%
    10:00 -4°C° 0 mm 5 m/s 758 mmHg 55%
    11:00 -4°C° 0 mm 5 m/s 758 mmHg 54%
    12:00 -2°C° 0 mm 4 m/s 758 mmHg 55%
    13:00 -2°C° 0 mm 4 m/s 758 mmHg 57%
    14:00 -1°C° 0 mm 4 m/s 758 mmHg 59%
    15:00 -2°C° 0 mm 4 m/s 757 mmHg 63%
    16:00 -2°C° 0 mm 4 m/s 757 mmHg 68%
    17:00 -2°C° 0 mm 4 m/s 756 mmHg 72%
    18:00 -2°C° 0 mm 4 m/s 755 mmHg 73%
    19:00 -2°C° 0 mm 4 m/s 755 mmHg 74%
    20:00 -2°C° 0 mm 5 m/s 754 mmHg 75%
    21:00 -1°C° 0 mm 5 m/s 753 mmHg 76%
    22:00 -1°C° 0 mm 5 m/s 752 mmHg 78%
    23:00 -1°C° 0 mm 5 m/s 751 mmHg 80%

    24 Janeiro, Sexta-feira

    Tempo Temperatura Precipitação Vento Pressão Humidade
    00:00 0°C° 0.1 mm 5 m/s 750 mmHg 83%
    01:00 +1°C° 0.1 mm 5 m/s 750 mmHg 86%
    02:00 +1°C° 0.1 mm 5 m/s 749 mmHg 90%
    03:00 +2°C° 0.1 mm 5 m/s 748 mmHg 90%
    04:00 +2°C° 0.1 mm 5 m/s 748 mmHg 90%
    05:00 +3°C° 0.1 mm 5 m/s 748 mmHg 91%
    06:00 +3°C° 0.1 mm 5 m/s 748 mmHg 91%
    07:00 +2°C° 0.1 mm 5 m/s 748 mmHg 90%
    08:00 +3°C° 0.1 mm 4 m/s 748 mmHg 90%
    09:00 +3°C° 0 mm 4 m/s 749 mmHg 90%
    10:00 +3°C° 0 mm 4 m/s 749 mmHg 90%
    11:00 +3°C° 0 mm 4 m/s 749 mmHg 89%
    12:00 +3°C° 0 mm 3 m/s 749 mmHg 88%
    13:00 +3°C° 0 mm 3 m/s 749 mmHg 88%
    14:00 +3°C° 0 mm 3 m/s 750 mmHg 87%
    15:00 +2°C° 0 mm 3 m/s 749 mmHg 89%
    16:00 +2°C° 0 mm 3 m/s 749 mmHg 90%
    17:00 +3°C° 0 mm 2 m/s 749 mmHg 92%
    18:00 +3°C° 0.1 mm 2 m/s 749 mmHg 93%
    19:00 +3°C° 0.1 mm 2 m/s 749 mmHg 94%
    20:00 +3°C° 0.1 mm 3 m/s 749 mmHg 95%
    21:00 +3°C° 0.2 mm 3 m/s 748 mmHg 95%
    22:00 +3°C° 0.2 mm 3 m/s 748 mmHg 95%
    23:00 +3°C° 0.2 mm 3 m/s 747 mmHg 95%

    25 Janeiro, Sábado

    Tempo Temperatura Precipitação Vento Pressão Humidade
    00:00 +3°C° 0.3 mm 4 m/s 747 mmHg 93%
    01:00 +4°C° 0.3 mm 4 m/s 747 mmHg 92%
    02:00 +3°C° 0.3 mm 5 m/s 746 mmHg 91%
    03:00 +4°C° 0.1 mm 4 m/s 746 mmHg 90%
    04:00 +4°C° 0.1 mm 4 m/s 746 mmHg 90%
    05:00 +4°C° 0.1 mm 4 m/s 746 mmHg 89%
    06:00 +4°C° 0.1 mm 4 m/s 746 mmHg 90%
    07:00 +4°C° 0.1 mm 4 m/s 746 mmHg 91%
    08:00 +4°C° 0.1 mm 4 m/s 746 mmHg 91%
    09:00 +4°C° 0.1 mm 4 m/s 747 mmHg 90%
    10:00 +4°C° 0.1 mm 4 m/s 747 mmHg 88%
    11:00 +5°C° 0.1 mm 4 m/s 748 mmHg 87%
    12:00 +5°C° 0.1 mm 4 m/s 748 mmHg 83%
    13:00 +5°C° 0.1 mm 4 m/s 748 mmHg 79%
    14:00 +5°C° 0.1 mm 4 m/s 748 mmHg 76%
    15:00 +4°C° 0 mm 3 m/s 748 mmHg 77%
    16:00 +4°C° 0 mm 3 m/s 749 mmHg 79%
    17:00 +3°C° 0 mm 3 m/s 749 mmHg 80%
    18:00 +4°C° 0 mm 3 m/s 749 mmHg 80%
    19:00 +4°C° 0 mm 3 m/s 748 mmHg 80%
    20:00 +4°C° 0 mm 3 m/s 748 mmHg 81%
    21:00 +4°C° 0 mm 3 m/s 748 mmHg 82%
    22:00 +3°C° 0 mm 3 m/s 748 mmHg 84%
    23:00 +3°C° 0 mm 4 m/s 748 mmHg 85%
    Mostrar mais